contact: severine.martini@mio.osupytheas.fr, dominique.lefevre@mio.osupytheas.fr
Project:EMSO Ligure-ouest http://www.emso-fr.org/EMSO-France
Sensor Optode, line 4330 Serial 272 
DOI : "https://doi.org/10.17882/97948" 
Title:EMSO Ligure Ouest : Data BathyDock capteur Optode - deploiement "2023-04-28"
Datetime,Profondeur,Latitude,Longitude,optode_type,serial,O2_concentration,O2_saturation,Temperature,Calibrated_Phase,Temp_Compensated_Phase,phase_blue_light,phase_red_light,Amplitude_blue_light,Amplitude_red_light,thermistor_bridge
time,m,degree_north,degree_east,1,1,umol.l-1,%,degree_C,degree,degree,degree,degree,mV,mV,mV
2023-11-05T00:00:08,2420,42.8014,5.9826,4330,272,186.619,57.165,13.317,36.026,36.607,41.198,4.592,295.4,544.0,291.0
2023-11-05T00:03:07,2420,42.8014,5.9826,4330,272,186.376,57.089,13.315,36.042,36.622,41.213,4.591,295.5,544.0,291.1
2023-11-05T00:06:07,2420,42.8014,5.9826,4330,272,186.479,57.121,13.316,36.036,36.616,41.208,4.592,295.5,544.0,291.0
2023-11-05T00:09:07,2420,42.8014,5.9826,4330,272,186.510,57.131,13.316,36.033,36.613,41.206,4.592,295.5,544.0,291.0
2023-11-05T00:12:07,2420,42.8014,5.9826,4330,272,186.307,57.068,13.316,36.047,36.627,41.216,4.589,295.5,544.0,291.0
2023-11-05T00:15:07,2420,42.8014,5.9826,4330,272,186.506,57.141,13.326,36.029,36.609,41.199,4.590,295.5,544.0,290.7
2023-11-05T00:18:07,2420,42.8014,5.9826,4330,272,186.333,57.083,13.322,36.043,36.623,41.211,4.588,295.5,544.0,290.8
2023-11-05T00:21:07,2420,42.8014,5.9826,4330,272,186.599,57.160,13.318,36.027,36.607,41.199,4.592,295.5,544.0,291.0
2023-11-05T00:24:07,2420,42.8014,5.9826,4330,272,186.281,57.063,13.318,36.047,36.627,41.213,4.585,295.5,544.1,291.0
2023-11-05T00:27:08,2420,42.8014,5.9826,4330,272,186.226,57.061,13.330,36.045,36.625,41.212,4.586,295.5,544.1,290.6
2023-11-05T00:30:08,2420,42.8014,5.9826,4330,272,186.227,57.067,13.334,36.043,36.623,41.208,4.585,295.5,544.0,290.4
2023-11-05T00:33:07,2420,42.8014,5.9826,4330,272,186.355,57.096,13.327,36.039,36.619,41.209,4.590,295.5,544.1,290.7
2023-11-05T00:36:08,2420,42.8014,5.9826,4330,272,186.243,57.068,13.332,36.044,36.624,41.215,4.591,295.5,544.0,290.5
2023-11-05T00:39:08,2420,42.8014,5.9826,4330,272,186.570,57.167,13.330,36.023,36.603,41.196,4.593,295.5,544.0,290.6
2023-11-05T00:42:08,2420,42.8014,5.9826,4330,272,186.553,57.153,13.324,36.027,36.607,41.198,4.591,295.5,544.0,290.8
2023-11-05T00:45:08,2420,42.8014,5.9826,4330,272,186.330,57.094,13.331,36.039,36.619,41.213,4.594,295.5,544.0,290.5
2023-11-05T00:48:08,2420,42.8014,5.9826,4330,272,186.329,57.081,13.321,36.043,36.623,41.215,4.592,295.6,544.2,290.9
2023-11-05T00:51:08,2420,42.8014,5.9826,4330,272,186.261,57.070,13.328,36.044,36.624,41.215,4.591,295.6,544.1,290.6
2023-11-05T00:54:07,2420,42.8014,5.9826,4330,272,186.481,57.145,13.335,36.026,36.607,41.196,4.590,295.6,544.1,290.4
2023-11-05T00:57:07,2420,42.8014,5.9826,4330,272,186.382,57.098,13.321,36.039,36.619,41.209,4.589,295.5,544.0,290.9
2023-11-05T01:00:07,2420,42.8014,5.9826,4330,272,186.254,57.059,13.321,36.048,36.628,41.218,4.590,295.5,544.0,290.9
2023-11-05T01:03:07,2420,42.8014,5.9826,4330,272,186.253,57.064,13.326,36.046,36.626,41.212,4.586,295.5,544.0,290.7
2023-11-05T01:06:07,2420,42.8014,5.9826,4330,272,186.222,57.046,13.319,36.051,36.631,41.216,4.585,295.6,544.1,290.9
2023-11-05T01:09:07,2420,42.8014,5.9826,4330,272,186.380,57.091,13.316,36.042,36.622,41.214,4.592,295.6,544.1,291.0
2023-11-05T01:12:07,2420,42.8014,5.9826,4330,272,186.323,57.087,13.327,36.041,36.621,41.211,4.590,295.5,544.0,290.7
2023-11-05T01:15:07,2420,42.8014,5.9826,4330,272,186.262,57.077,13.334,36.041,36.621,41.207,4.586,295.6,544.0,290.4
2023-11-05T01:18:07,2420,42.8014,5.9826,4330,272,186.284,57.068,13.321,36.046,36.626,41.214,4.589,295.5,544.1,290.9
2023-11-05T01:21:07,2420,42.8014,5.9826,4330,272,186.217,57.049,13.323,36.049,36.629,41.220,4.591,295.5,544.1,290.8
2023-11-05T01:24:07,2420,42.8014,5.9826,4330,272,186.306,57.076,13.322,36.044,36.624,41.207,4.583,295.7,544.1,290.8
2023-11-05T01:27:08,2420,42.8014,5.9826,4330,272,186.265,57.070,13.328,36.044,36.624,41.215,4.591,295.6,544.0,290.7
2023-11-05T01:30:08,2420,42.8014,5.9826,4330,272,186.056,57.002,13.324,36.059,36.639,41.235,4.596,295.6,544.1,290.8
2023-11-05T01:33:07,2420,42.8014,5.9826,4330,272,186.219,57.051,13.323,36.049,36.629,41.216,4.588,295.7,544.1,290.8
2023-11-05T01:36:07,2420,42.8014,5.9826,4330,272,186.481,57.124,13.318,36.035,36.615,41.205,4.590,295.7,544.0,291.0
2023-11-05T01:39:07,2420,42.8014,5.9826,4330,272,186.107,57.007,13.316,36.060,36.640,41.226,4.586,295.7,544.1,291.0
2023-11-05T01:42:08,2420,42.8014,5.9826,4330,272,186.252,57.064,13.326,36.046,36.626,41.222,4.596,295.6,544.0,290.7
2023-11-05T01:45:08,2420,42.8014,5.9826,4330,272,186.082,57.015,13.329,36.056,36.635,41.233,4.597,295.7,544.0,290.6
2023-11-05T01:48:08,2420,42.8014,5.9826,4330,272,186.295,57.075,13.324,36.044,36.624,41.215,4.591,295.6,544.1,290.8
2023-11-05T01:51:08,2420,42.8014,5.9826,4330,272,186.197,57.044,13.324,36.050,36.630,41.222,4.592,295.7,544.1,290.8
2023-11-05T01:54:07,2420,42.8014,5.9826,4330,272,186.192,57.044,13.325,36.050,36.630,41.225,4.594,295.7,544.1,290.7
2023-11-05T01:57:07,2420,42.8014,5.9826,4330,272,185.995,56.979,13.321,36.065,36.644,41.237,4.592,295.7,544.1,290.9
2023-11-05T02:00:07,2420,42.8014,5.9826,4330,272,186.355,57.087,13.319,36.042,36.622,41.213,4.591,295.7,544.1,290.9
2023-11-05T02:03:08,2420,42.8014,5.9826,4330,272,186.219,57.049,13.322,36.050,36.630,41.220,4.591,295.6,544.0,290.8
2023-11-05T02:06:07,2420,42.8014,5.9826,4330,272,186.291,57.070,13.321,36.046,36.626,41.219,4.593,295.7,544.1,290.9
2023-11-05T02:09:07,2420,42.8014,5.9826,4330,272,186.144,57.027,13.323,36.054,36.634,41.224,4.590,295.7,544.1,290.8
2023-11-05T02:12:07,2420,42.8014,5.9826,4330,272,186.132,57.020,13.320,36.056,36.636,41.227,4.591,295.7,544.1,290.9
2023-11-05T02:15:07,2420,42.8014,5.9826,4330,272,186.205,57.039,13.317,36.053,36.633,41.223,4.590,295.7,544.1,291.0
2023-11-05T02:18:07,2420,42.8014,5.9826,4330,272,186.275,57.060,13.317,36.048,36.628,41.219,4.590,295.6,544.1,291.0
2023-11-05T02:21:07,2420,42.8014,5.9826,4330,272,186.310,57.081,13.325,36.042,36.622,41.213,4.591,295.6,544.0,290.7
2023-11-05T02:24:07,2420,42.8014,5.9826,4330,272,185.985,56.985,13.328,36.062,36.642,41.231,4.589,295.6,544.1,290.6
2023-11-05T02:27:08,2420,42.8014,5.9826,4330,272,186.073,56.998,13.317,36.061,36.641,41.237,4.595,295.6,544.0,291.0
2023-11-05T02:30:08,2420,42.8014,5.9826,4330,272,186.337,57.085,13.322,36.042,36.622,41.215,4.593,295.7,544.1,290.8
2023-11-05T02:33:07,2420,42.8014,5.9826,4330,272,186.307,57.075,13.321,36.044,36.624,41.218,4.594,295.6,544.1,290.9
2023-11-05T02:36:07,2420,42.8014,5.9826,4330,272,186.263,57.066,13.325,36.046,36.626,41.216,4.591,295.6,544.0,290.7
2023-11-05T02:39:07,2420,42.8014,5.9826,4330,272,186.287,57.066,13.319,36.046,36.626,41.218,4.592,295.6,544.1,290.9
2023-11-05T02:42:08,2420,42.8014,5.9826,4330,272,186.088,57.012,13.325,36.057,36.637,41.225,4.588,295.6,544.1,290.7
2023-11-05T02:45:08,2420,42.8014,5.9826,4330,272,186.317,57.080,13.323,36.043,36.623,41.213,4.590,295.6,544.1,290.8
2023-11-05T02:48:08,2420,42.8014,5.9826,4330,272,185.875,56.946,13.324,36.071,36.651,41.243,4.592,295.6,544.0,290.8
2023-11-05T02:51:08,2420,42.8014,5.9826,4330,272,186.150,57.027,13.321,36.055,36.635,41.226,4.591,295.5,544.1,290.9
2023-11-05T02:54:08,2420,42.8014,5.9826,4330,272,186.153,57.026,13.320,36.055,36.635,41.223,4.588,295.7,544.0,290.9
2023-11-05T02:57:08,2420,42.8014,5.9826,4330,272,186.278,57.081,13.333,36.041,36.621,41.213,4.592,295.6,544.0,290.5
2023-11-05T03:00:08,2420,42.8014,5.9826,4330,272,186.203,57.045,13.322,36.051,36.631,41.218,4.587,295.7,544.0,290.8
2023-11-05T03:03:07,2420,42.8014,5.9826,4330,272,185.884,56.947,13.323,36.071,36.651,41.245,4.594,295.8,544.0,290.8
2023-11-05T03:06:07,2420,42.8014,5.9826,4330,272,185.853,56.955,13.336,36.067,36.647,41.232,4.585,295.7,544.0,290.4
2023-11-05T03:09:07,2420,42.8014,5.9826,4330,272,186.128,57.013,13.316,36.059,36.639,41.230,4.591,295.7,544.1,291.0
2023-11-05T03:12:07,2420,42.8014,5.9826,4330,272,186.078,57.010,13.326,36.057,36.637,41.227,4.590,295.6,544.1,290.7
2023-11-05T03:15:07,2420,42.8014,5.9826,4330,272,186.185,57.043,13.325,36.050,36.630,41.217,4.587,295.5,544.0,290.7
2023-11-05T03:18:08,2420,42.8014,5.9826,4330,272,186.202,57.044,13.322,36.050,36.630,41.220,4.589,295.7,544.1,290.8
2023-11-05T03:21:08,2420,42.8014,5.9826,4330,272,186.524,57.141,13.321,36.030,36.610,41.203,4.592,295.6,544.1,290.9
2023-11-05T03:24:08,2420,42.8014,5.9826,4330,272,186.461,57.123,13.322,36.034,36.614,41.206,4.593,295.6,544.1,290.8
2023-11-05T03:27:08,2420,42.8014,5.9826,4330,272,186.055,56.994,13.318,36.063,36.643,41.233,4.590,295.7,544.2,291.0
2023-11-05T03:30:08,2420,42.8014,5.9826,4330,272,186.157,57.036,13.327,36.052,36.632,41.221,4.589,295.6,544.1,290.7
2023-11-05T03:33:07,2420,42.8014,5.9826,4330,272,185.992,56.972,13.317,36.067,36.647,41.233,4.586,295.7,544.1,291.0
2023-11-05T03:36:07,2420,42.8014,5.9826,4330,272,186.304,57.073,13.320,36.045,36.625,41.220,4.595,295.6,544.1,290.9
2023-11-05T03:39:07,2420,42.8014,5.9826,4330,272,186.479,57.129,13.323,36.032,36.613,41.202,4.590,295.6,544.0,290.8
2023-11-05T03:42:07,2420,42.8014,5.9826,4330,272,186.290,57.077,13.327,36.043,36.623,41.216,4.594,295.6,544.1,290.7
2023-11-05T03:45:07,2420,42.8014,5.9826,4330,272,186.232,57.052,13.321,36.049,36.629,41.222,4.593,295.5,544.0,290.9
2023-11-05T03:48:07,2420,42.8014,5.9826,4330,272,186.486,57.135,13.325,36.031,36.611,41.201,4.590,295.6,544.1,290.7
2023-11-05T03:51:07,2420,42.8014,5.9826,4330,272,186.248,57.056,13.320,36.049,36.629,41.221,4.592,295.6,544.1,290.9
2023-11-05T03:54:08,2420,42.8014,5.9826,4330,272,186.272,57.067,13.324,36.045,36.625,41.216,4.591,295.6,544.1,290.8
2023-11-05T03:57:08,2420,42.8014,5.9826,4330,272,186.065,57.002,13.322,36.060,36.640,41.228,4.589,295.5,544.0,290.8
2023-11-05T04:00:08,2420,42.8014,5.9826,4330,272,186.115,57.021,13.325,36.055,36.635,41.226,4.591,295.6,544.1,290.7
2023-11-05T04:03:07,2420,42.8014,5.9826,4330,272,186.152,57.030,13.323,36.053,36.633,41.226,4.593,295.6,544.1,290.8
2023-11-05T04:06:07,2420,42.8014,5.9826,4330,272,186.300,57.081,13.328,36.042,36.622,41.212,4.590,295.6,544.1,290.6
2023-11-05T04:09:07,2420,42.8014,5.9826,4330,272,186.301,57.073,13.321,36.045,36.625,41.213,4.588,295.6,544.0,290.9
2023-11-05T04:12:07,2420,42.8014,5.9826,4330,272,186.317,57.076,13.320,36.044,36.624,41.209,4.585,295.6,544.1,290.9
2023-11-05T04:15:07,2420,42.8014,5.9826,4330,272,186.132,57.022,13.322,36.055,36.635,41.224,4.589,295.7,544.0,290.8
2023-11-05T04:18:07,2420,42.8014,5.9826,4330,272,186.088,57.014,13.326,36.056,36.636,41.225,4.588,295.6,544.1,290.7
2023-11-05T04:21:08,2420,42.8014,5.9826,4330,272,186.252,57.054,13.318,36.049,36.629,41.218,4.589,295.6,544.1,291.0
2023-11-05T04:24:08,2420,42.8014,5.9826,4330,272,186.064,56.998,13.319,36.061,36.641,41.238,4.597,295.6,544.0,290.9
2023-11-05T04:27:08,2420,42.8014,5.9826,4330,272,186.133,57.019,13.319,36.057,36.637,41.227,4.590,295.6,544.1,290.9
2023-11-05T04:30:08,2420,42.8014,5.9826,4330,272,186.294,57.067,13.318,36.047,36.627,41.215,4.588,295.6,544.1,291.0
2023-11-05T04:33:07,2420,42.8014,5.9826,4330,272,186.191,57.034,13.317,36.054,36.634,41.223,4.589,295.7,544.0,291.0
2023-11-05T04:36:07,2420,42.8014,5.9826,4330,272,186.329,57.079,13.319,36.044,36.624,41.216,4.592,295.6,544.0,290.9
2023-11-05T04:39:07,2420,42.8014,5.9826,4330,272,186.246,57.055,13.320,36.048,36.628,41.221,4.593,295.6,544.0,290.9
2023-11-05T04:42:07,2420,42.8014,5.9826,4330,272,186.153,57.026,13.320,36.055,36.635,41.227,4.592,295.6,544.1,290.9
2023-11-05T04:45:07,2420,42.8014,5.9826,4330,272,186.212,57.044,13.320,36.051,36.631,41.221,4.590,295.6,544.1,290.9
2023-11-05T04:48:07,2420,42.8014,5.9826,4330,272,186.122,57.016,13.319,36.057,36.637,41.225,4.588,295.6,544.1,290.9
2023-11-05T04:51:07,2420,42.8014,5.9826,4330,272,186.412,57.103,13.318,36.039,36.619,41.210,4.591,295.6,544.0,291.0
2023-11-05T04:54:08,2420,42.8014,5.9826,4330,272,186.735,57.205,13.321,36.017,36.597,41.187,4.590,295.6,544.0,290.9
2023-11-05T04:57:08,2420,42.8014,5.9826,4330,272,186.260,57.056,13.318,36.050,36.630,41.223,4.593,295.6,544.1,291.0
2023-11-05T05:00:08,2420,42.8014,5.9826,4330,272,186.125,57.015,13.318,36.057,36.637,41.230,4.592,295.7,544.1,291.0
2023-11-05T05:03:07,2420,42.8014,5.9826,4330,272,186.045,56.994,13.321,36.062,36.641,41.229,4.588,295.5,544.1,290.9
2023-11-05T05:06:07,2420,42.8014,5.9826,4330,272,186.496,57.135,13.323,36.032,36.612,41.204,4.592,295.6,544.0,290.8
2023-11-05T05:09:07,2420,42.8014,5.9826,4330,272,186.073,57.003,13.321,36.060,36.640,41.230,4.590,295.6,544.0,290.9
2023-11-05T05:12:07,2420,42.8014,5.9826,4330,272,186.388,57.092,13.315,36.042,36.622,41.213,4.591,295.6,544.0,291.1
2023-11-05T05:15:07,2420,42.8014,5.9826,4330,272,186.222,57.045,13.319,36.051,36.631,41.219,4.588,295.6,544.1,290.9
2023-11-05T05:18:07,2420,42.8014,5.9826,4330,272,186.114,57.013,13.319,36.058,36.638,41.227,4.589,295.6,544.1,290.9
2023-11-05T05:21:07,2420,42.8014,5.9826,4330,272,186.333,57.077,13.317,36.045,36.625,41.218,4.594,295.6,544.1,291.0
2023-11-05T05:24:07,2420,42.8014,5.9826,4330,272,186.348,57.083,13.318,36.043,36.623,41.209,4.585,295.6,544.1,291.0
2023-11-05T05:27:07,2420,42.8014,5.9826,4330,272,186.236,57.053,13.321,36.049,36.629,41.226,4.596,295.5,544.0,290.9
2023-11-05T05:30:08,2420,42.8014,5.9826,4330,272,186.124,57.013,13.317,36.058,36.638,41.227,4.589,295.6,544.0,291.0
2023-11-05T05:33:07,2420,42.8014,5.9826,4330,272,186.200,57.035,13.315,36.054,36.634,41.224,4.590,295.6,544.0,291.0
2023-11-05T05:36:07,2420,42.8014,5.9826,4330,272,186.247,57.058,13.322,36.048,36.628,41.220,4.593,295.6,544.1,290.8
2023-11-05T05:39:07,2420,42.8014,5.9826,4330,272,186.310,57.074,13.320,36.045,36.625,41.222,4.597,295.6,544.0,290.9
2023-11-05T05:42:07,2420,42.8014,5.9826,4330,272,186.290,57.066,13.319,36.047,36.627,41.216,4.590,295.7,544.1,290.9
2023-11-05T05:45:07,2420,42.8014,5.9826,4330,272,186.599,57.155,13.314,36.029,36.609,41.201,4.592,295.7,544.1,291.1
2023-11-05T05:48:08,2420,42.8014,5.9826,4330,272,185.962,56.961,13.315,36.070,36.650,41.242,4.593,295.7,544.1,291.1
2023-11-05T05:51:08,2420,42.8014,5.9826,4330,272,186.072,56.990,13.311,36.065,36.644,41.230,4.586,295.5,544.1,291.2
2023-11-05T05:54:08,2420,42.8014,5.9826,4330,272,186.449,57.108,13.313,36.039,36.619,41.213,4.593,295.5,544.1,291.1
2023-11-05T05:57:08,2420,42.8014,5.9826,4330,272,186.286,57.059,13.314,36.049,36.629,41.218,4.589,295.5,544.1,291.1
2023-11-05T06:00:08,2420,42.8014,5.9826,4330,272,186.628,57.163,13.313,36.028,36.608,41.201,4.593,295.6,544.1,291.1
2023-11-05T06:03:07,2420,42.8014,5.9826,4330,272,186.187,57.038,13.321,36.053,36.633,41.223,4.590,295.6,544.1,290.9
2023-11-05T06:06:07,2420,42.8014,5.9826,4330,272,186.509,57.124,13.311,36.036,36.616,41.210,4.593,295.5,544.1,291.2
2023-11-05T06:09:07,2420,42.8014,5.9826,4330,272,186.400,57.093,13.313,36.043,36.623,41.214,4.591,295.7,544.1,291.1
2023-11-05T06:12:07,2420,42.8014,5.9826,4330,272,186.395,57.091,13.313,36.042,36.622,41.215,4.592,295.6,544.1,291.1
2023-11-05T06:15:07,2420,42.8014,5.9826,4330,272,186.476,57.115,13.312,36.038,36.618,41.211,4.593,295.6,544.1,291.2
2023-11-05T06:18:07,2420,42.8014,5.9826,4330,272,186.430,57.102,13.313,36.040,36.621,41.212,4.592,295.6,544.1,291.1
2023-11-05T06:21:08,2420,42.8014,5.9826,4330,272,186.395,57.100,13.319,36.040,36.620,41.212,4.593,295.6,544.0,290.9
2023-11-05T06:24:08,2420,42.8014,5.9826,4330,272,186.299,57.073,13.321,36.044,36.624,41.216,4.592,295.5,544.1,290.9
2023-11-05T06:27:08,2420,42.8014,5.9826,4330,272,186.205,57.034,13.314,36.054,36.634,41.220,4.586,295.6,544.2,291.1
2023-11-05T06:30:08,2420,42.8014,5.9826,4330,272,186.277,57.061,13.317,36.049,36.629,41.221,4.593,295.6,544.1,291.0
2023-11-05T06:33:07,2420,42.8014,5.9826,4330,272,186.417,57.098,13.313,36.042,36.622,41.212,4.591,295.6,544.1,291.1
2023-11-05T06:36:07,2420,42.8014,5.9826,4330,272,186.608,57.163,13.318,36.026,36.606,41.199,4.593,295.6,544.1,291.0
2023-11-05T06:39:07,2420,42.8014,5.9826,4330,272,186.320,57.074,13.317,36.045,36.625,41.219,4.593,295.6,544.2,291.0
2023-11-05T06:42:07,2420,42.8014,5.9826,4330,272,186.443,57.107,13.313,36.039,36.619,41.211,4.591,295.7,544.1,291.1
2023-11-05T06:45:07,2420,42.8014,5.9826,4330,272,186.077,57.007,13.323,36.058,36.638,41.227,4.589,295.6,544.1,290.8
2023-11-05T06:48:07,2420,42.8014,5.9826,4330,272,186.300,57.067,13.317,36.047,36.627,41.224,4.597,295.6,544.1,291.0
2023-11-05T06:51:08,2420,42.8014,5.9826,4330,272,186.207,57.047,13.323,36.050,36.630,41.220,4.591,295.6,544.1,290.8
2023-11-05T06:54:08,2420,42.8014,5.9826,4330,272,186.316,57.078,13.322,36.043,36.623,41.215,4.591,295.6,544.1,290.8
2023-11-05T06:57:08,2420,42.8014,5.9826,4330,272,186.100,57.017,13.325,36.056,36.636,41.227,4.591,295.6,544.1,290.7
2023-11-05T07:00:08,2420,42.8014,5.9826,4330,272,186.324,57.085,13.325,36.041,36.621,41.212,4.591,295.6,544.1,290.7
2023-11-05T07:03:07,2420,42.8014,5.9826,4330,272,186.309,57.067,13.315,36.048,36.628,41.213,4.586,295.6,544.1,291.1
2023-11-05T07:06:07,2420,42.8014,5.9826,4330,272,186.360,57.088,13.319,36.042,36.622,41.211,4.590,295.6,544.1,290.9
2023-11-05T07:09:07,2420,42.8014,5.9826,4330,272,186.405,57.100,13.317,36.040,36.620,41.210,4.590,295.6,544.1,291.0
2023-11-05T07:12:07,2420,42.8014,5.9826,4330,272,186.586,57.160,13.321,36.027,36.607,41.199,4.592,295.5,544.1,290.9
2023-11-05T07:15:07,2420,42.8014,5.9826,4330,272,186.279,57.050,13.309,36.052,36.632,41.224,4.592,295.6,544.1,291.3
2023-11-05T07:18:07,2420,42.8014,5.9826,4330,272,186.647,57.164,13.309,36.028,36.608,41.202,4.593,295.6,544.1,291.2
2023-11-05T07:21:07,2420,42.8014,5.9826,4330,272,186.518,57.123,13.309,36.037,36.617,41.207,4.590,295.6,544.2,291.3
2023-11-05T07:24:07,2420,42.8014,5.9826,4330,272,186.301,57.059,13.310,36.050,36.630,41.223,4.593,295.5,544.1,291.2
2023-11-05T07:27:07,2420,42.8014,5.9826,4330,272,186.573,57.142,13.310,36.032,36.612,41.205,4.592,295.5,544.1,291.2
2023-11-05T07:30:08,2420,42.8014,5.9826,4330,272,186.570,57.138,13.307,36.034,36.614,41.204,4.591,295.5,544.1,291.3
2023-11-05T07:33:07,2420,42.8014,5.9826,4330,272,186.388,57.098,13.320,36.040,36.620,41.211,4.591,295.5,544.1,290.9
2023-11-05T07:36:07,2420,42.8014,5.9826,4330,272,186.293,57.067,13.318,36.046,36.626,41.216,4.590,295.5,544.1,290.9
2023-11-05T07:39:08,2420,42.8014,5.9826,4330,272,186.444,57.106,13.313,36.039,36.619,41.214,4.594,295.4,544.1,291.1
2023-11-05T07:42:08,2420,42.8014,5.9826,4330,272,186.557,57.147,13.317,36.030,36.610,41.200,4.590,295.5,544.1,291.0
2023-11-05T07:45:08,2420,42.8014,5.9826,4330,272,186.587,57.149,13.312,36.030,36.610,41.202,4.591,295.5,544.1,291.2
2023-11-05T07:48:08,2420,42.8014,5.9826,4330,272,186.437,57.101,13.310,36.041,36.621,41.212,4.591,295.5,544.1,291.2
2023-11-05T07:51:08,2420,42.8014,5.9826,4330,272,186.357,57.073,13.308,36.047,36.627,41.214,4.587,295.6,544.0,291.3
2023-11-05T07:54:08,2420,42.8014,5.9826,4330,272,186.237,57.041,13.312,36.054,36.634,41.229,4.595,295.6,544.1,291.2
2023-11-05T07:57:07,2420,42.8014,5.9826,4330,272,186.366,57.077,13.309,36.046,36.626,41.217,4.590,295.6,544.1,291.3
2023-11-05T08:00:07,2420,42.8014,5.9826,4330,272,186.446,57.099,13.306,36.043,36.623,41.213,4.590,295.4,544.2,291.3
2023-11-05T08:03:07,2420,42.8014,5.9826,4330,272,186.519,57.123,13.308,36.037,36.617,41.210,4.593,295.5,544.1,291.3
2023-11-05T08:06:07,2420,42.8014,5.9826,4330,272,186.612,57.152,13.309,36.031,36.611,41.204,4.594,295.5,544.1,291.3
2023-11-05T08:09:07,2420,42.8014,5.9826,4330,272,186.389,57.083,13.307,36.046,36.626,41.215,4.590,295.5,544.1,291.3
2023-11-05T08:12:07,2420,42.8014,5.9826,4330,272,186.555,57.133,13.308,36.035,36.615,41.206,4.591,295.5,544.0,291.3
2023-11-05T08:15:07,2420,42.8014,5.9826,4330,272,186.748,57.193,13.308,36.022,36.602,41.194,4.592,295.5,544.1,291.3
2023-11-05T08:18:07,2420,42.8014,5.9826,4330,272,186.752,57.193,13.307,36.023,36.603,41.196,4.593,295.4,544.2,291.3
2023-11-05T08:21:07,2420,42.8014,5.9826,4330,272,186.347,57.076,13.312,36.046,36.626,41.215,4.588,295.5,544.1,291.2
2023-11-05T08:24:07,2420,42.8014,5.9826,4330,272,186.791,57.210,13.311,36.018,36.598,41.191,4.593,295.5,544.2,291.2
2023-11-05T08:27:08,2420,42.8014,5.9826,4330,272,186.537,57.140,13.317,36.031,36.612,41.198,4.587,295.4,544.1,291.0
2023-11-05T08:30:08,2420,42.8014,5.9826,4330,272,186.641,57.163,13.310,36.028,36.608,41.198,4.590,295.5,544.1,291.2
2023-11-05T08:33:07,2420,42.8014,5.9826,4330,272,186.324,57.068,13.311,36.048,36.628,41.216,4.588,295.4,544.1,291.2
2023-11-05T08:36:07,2420,42.8014,5.9826,4330,272,186.776,57.200,13.307,36.021,36.601,41.191,4.589,295.5,544.1,291.3
2023-11-05T08:39:07,2420,42.8014,5.9826,4330,272,186.565,57.140,13.310,36.033,36.613,41.200,4.587,295.5,544.1,291.2
2023-11-05T08:42:07,2420,42.8014,5.9826,4330,272,186.562,57.138,13.310,36.034,36.614,41.207,4.593,295.4,544.1,291.2
2023-11-05T08:45:07,2420,42.8014,5.9826,4330,272,186.609,57.153,13.310,36.031,36.611,41.209,4.598,295.5,544.2,291.2
2023-11-05T08:48:07,2420,42.8014,5.9826,4330,272,186.636,57.159,13.308,36.030,36.610,41.204,4.595,295.5,544.1,291.3
2023-11-05T08:51:07,2420,42.8014,5.9826,4330,272,186.556,57.132,13.306,36.035,36.615,41.208,4.593,295.4,544.1,291.3
2023-11-05T08:54:08,2420,42.8014,5.9826,4330,272,186.913,57.241,13.306,36.012,36.592,41.185,4.593,295.5,544.1,291.4
2023-11-05T08:57:08,2420,42.8014,5.9826,4330,272,186.685,57.171,13.306,36.027,36.607,41.198,4.591,295.4,544.1,291.4
2023-11-05T09:00:08,2420,42.8014,5.9826,4330,272,186.661,57.164,13.306,36.029,36.609,41.203,4.593,295.5,544.1,291.4
2023-11-05T09:03:07,2420,42.8014,5.9826,4330,272,186.569,57.136,13.306,36.035,36.615,41.204,4.589,295.4,544.2,291.3
2023-11-05T09:06:07,2420,42.8014,5.9826,4330,272,186.610,57.150,13.307,36.031,36.612,41.200,4.589,295.4,544.1,291.3
2023-11-05T09:09:08,2420,42.8014,5.9826,4330,272,186.607,57.158,13.315,36.028,36.608,41.199,4.590,295.5,544.2,291.1
2023-11-05T09:12:08,2420,42.8014,5.9826,4330,272,186.616,57.152,13.307,36.031,36.611,41.205,4.594,295.4,544.1,291.3
2023-11-05T09:15:08,2420,42.8014,5.9826,4330,272,186.720,57.187,13.310,36.023,36.603,41.197,4.594,295.4,544.2,291.2
2023-11-05T09:18:08,2420,42.8014,5.9826,4330,272,186.581,57.144,13.309,36.033,36.613,41.200,4.587,295.5,544.2,291.3
2023-11-05T09:21:07,2420,42.8014,5.9826,4330,272,186.660,57.165,13.307,36.029,36.609,41.195,4.587,295.5,544.1,291.3
2023-11-05T09:24:07,2420,42.8014,5.9826,4330,272,186.381,57.079,13.307,36.046,36.626,41.211,4.585,295.5,544.1,291.3
2023-11-05T09:27:07,2420,42.8014,5.9826,4330,272,186.592,57.143,13.306,36.033,36.614,41.205,4.591,295.5,544.1,291.4
2023-11-05T09:30:07,2420,42.8014,5.9826,4330,272,186.645,57.158,13.305,36.030,36.610,41.203,4.592,295.4,544.2,291.4
2023-11-05T09:33:07,2420,42.8014,5.9826,4330,272,186.547,57.133,13.309,36.035,36.615,41.209,4.594,295.4,544.1,291.3
2023-11-05T09:36:07,2420,42.8014,5.9826,4330,272,186.561,57.135,13.307,36.034,36.614,41.207,4.593,295.4,544.1,291.3
2023-11-05T09:39:08,2420,42.8014,5.9826,4330,272,186.554,57.136,13.310,36.034,36.614,41.208,4.594,295.4,544.0,291.2
2023-11-05T09:42:07,2420,42.8014,5.9826,4330,272,186.571,57.146,13.314,36.031,36.611,41.199,4.588,295.4,544.1,291.1
2023-11-05T09:45:07,2420,42.8014,5.9826,4330,272,186.545,57.138,13.313,36.033,36.613,41.205,4.592,295.5,544.1,291.1
2023-11-05T09:48:07,2420,42.8014,5.9826,4330,272,186.587,57.149,13.312,36.030,36.610,41.208,4.598,295.5,544.1,291.2
2023-11-05T09:51:07,2420,42.8014,5.9826,4330,272,186.579,57.145,13.311,36.032,36.612,41.204,4.592,295.5,544.1,291.2
2023-11-05T09:54:07,2420,42.8014,5.9826,4330,272,186.588,57.148,13.311,36.031,36.611,41.202,4.591,295.5,544.1,291.2
2023-11-05T09:57:07,2420,42.8014,5.9826,4330,272,186.703,57.181,13.309,36.025,36.605,41.197,4.593,295.5,544.1,291.3
2023-11-05T10:00:08,2420,42.8014,5.9826,4330,272,186.543,57.133,13.310,36.035,36.615,41.211,4.596,295.5,544.1,291.2